Location: Unspecified
(40.7945°N, 111.1337°W)
Time: 20:25:31
(UTC-06:00)

Vanguard 1 - Pass Details

Date: 27 June 2019
Orbit: 653 x 3830 km, 34.3° (Epoch: 15 July)

Event Time Altitude Azimuth Distance (km) Brightness Sun altitude
Rises 00:50:41 0° 216° (SW) 7,839 14.3 -25.3°
Enters shadow 00:52:10 - 214° (SW) 7,604 14.2 -25.4°
Reaches altitude 10° 00:56:32 10° 209° (SSW) 6,913 - -25.5°
Exits shadow 01:08:48 32° 185° (S) 5,126 13.1 -25.7°
Maximum altitude 01:16:56 41° 149° (SSE) 4,385 12.8 -25.8°
Drops below altitude 10° 01:32:01 10° 87° (E) 5,250 13.8 -25.9°
Sets 01:35:39 0° 81° (E) 5,882 14.2 -25.8°
